Погода в Бичевой

Россия / Хабаровский край     47°46′32″N   135°37′46″E
темп.,
°C
ветер,
м/с
пор.,
м/с
влажн.,
%
обл.,
%
осадки,
мм/ч
давл.,
гПа
погр.,
м
20 апреля, вт
вт2001:00+5зсз61175100 0.1 999967
04:000з714380 0.2 10031190
07:00−1з614415 0.0 10051731
10:00+1з81432100 0.0 10042410
13:00+2зсз8143299 0.0 10042673
16:00+6сз71130100 0.0 10052328
19:00+6зсз5113599 0.0 10081883
22:00+3зсз413424 0.0 1010701
21 апреля, ср
ср2101:00+2зсз412441 0.0 1013734
04:00−1зюз11530 0.0 101510
07:000ю12460 0.0 101759
10:00+7юз23270 0.0 1018751
13:00+12ссз35200 0.0 10171194
16:00+15ссз36210 0.0 10161479
19:00+12ссв23340 0.0 101860
22:00+7вюв21430 0.0 102011
22 апреля, чт
чт2201:00+5юв22480 0.0 102116
04:00+4юв22520 0.0 102225
07:00+5юв23520 0.0 102359
10:00+14юв23270 0.0 1022367
13:00+21ююв23190 0.0 10211008
16:00+23ююз23175 0.0 10191888
19:00+19юз222715 0.0 101921
22:00+13ююв223662 0.0 102014
23 апреля, пт
пт2301:00+11юв234522 0.0 102143
04:00+9юв355230 0.0 102279
07:00+9ююв385892 0.0 1022211
10:00+16ююз3438100 0.0 1021649
13:00+20зюз2331100 0.0 10201137
16:00+21з4531100 0.0 10191492
19:00+18зюз2739100 0.0 1018220
22:00+14с235996 0.0 101894
24 апреля, сб
сб2401:00+9с4687100 0.8 1019450
04:00+2ссз4796100 3.9 1021517
07:00+1ссз3798100 1.4 1022385
10:00+2ссз3588100 1.8 1022763
13:00+6сз2460100 0.1 10201395
16:00+7зсз274625 1.0 10181835
19:00+7ссз5104147 0.0 10161119
22:000всв128687 0.1 101878